weather.gov     
National Weather Service

Terminal Aerodrome Forecast
NWS Homepage
This page is being discontinued on March 12, 2014.
The same data is available at this site. Please update your bookmarks.
Thank you, and we apologize for the inconvenience.
Please send an email to SR-SRH.Webmaster@noaa.gov with any concerns.


Current Version
Previous Version:    01  02  03  04  05  06  07  08  09  10  11  12  13  14  
[Printable]
241
FTUS41 KGYX 251121
TAFPWM
TAF
KPWM 251121Z 2512/2612 30005KT P6SM BKN100
     FM251700 20007KT P6SM SCT250
     FM260300 26007KT P6SM BKN050 OVC120=




241
FTUS41 KGYX 251121
TAFPWM
TAF
KPWM 251121Z 2512/2612 30005KT P6SM BKN100
     FM251700 20007KT P6SM SCT250
     FM260300 26007KT P6SM BKN050 OVC120=


U.S. Dept. of Commerce
NOAA National Weather Service
1325 East West Highway
Silver Spring, MD 20910
E-mail: w-nws.webmaster@noaa.gov
Page last modified: May 16, 2007
NATIONAL WEATHER SERVICE: for Safety, for Work, for Fun - FOR LIFE